Погода в Можарках

Россия / Чувашская Республика     55°28′22″N   47°49′18″E
темп.,
°C
ветер,
м/с
пор.,
м/с
влажн.,
%
обл.,
%
осадки,
мм/ч
давл.,
гПа
погр.,
м
6 марта, сб
сб600:00−10зюз499570 0.0 1009188
03:00−11з489683 0.1 1011192
06:00−12зсз499699 0.1 1012225
09:00−13зсз349466 0.1 1014136
12:00−9з35870 0.0 1015337
15:00−8з36847 0.0 1014752
18:00−12зюз349030 0.0 101426
21:00−15з239315 0.0 101321
7 марта, вс
вс700:00−16з239713 0.0 101220
03:00−16зюз239840 0.1 101222
06:00−17юз239876 0.0 101120
09:00−13юз469478 0.1 1010226
12:00−8ююз588984 0.0 1008625
15:00−7ю6118492 0.0 1004802
18:00−7ююз71294100 0.6 1001871
21:00−7ю81494100 1.9 997854
8 марта, пн
пн800:00−5ююз81494100 0.9 993866
03:00−9зюз61483100 1.5 994411
06:00−12зюз5138571 0.0 995270
09:00−9юз6138471 0.0 996608
12:00−6юз71087100 0.1 996769
15:00−5зюз71182100 0.2 9971268
18:00−8з4118799 0.2 998420
21:00−9з6129492 0.4 1000478
9 марта, вт
вт900:00−12зсз5109596 0.1 1003264
03:00−15зсз5109695 0.1 1006211
06:00−19зсз479984 0.0 1009122
09:00−17зсз489464 0.0 1011262
12:00−14зсз469066 0.0 1013409
15:00−14зсз478840 0.0 1014485
18:00−18зсз349753 0.0 101551
21:00−19зсз3310067 0.0 101726
10 марта, ср
ср1000:00−20сз2310088 0.0 101725
03:00−23ссз3310082 0.1 101828
06:00−25ссз3410084 0.0 101954
09:00−23ссз469681 0.0 1020242
12:00−21ссз469357 0.0 1021344
15:00−19сз579274 0.0 1021510
18:00−23сз4597100 0.0 102381
21:00−25сз349882 0.1 102346